| time (UTC) | temp C | wind direction | speed KPH | gust KPH | rain 1hr cm | rain 24hr cm | rain mn cm | humidity % | barometer mb |
| 20260902185004 | 26 | 336 | 3.2 | 9.7 | 0.00 | 0.38 | 0.38 | 62 | 1013.6 |
| 20260902184004 | 26 | 355 | 3.2 | 12.9 | 0.00 | 0.38 | 0.38 | 67 | 1013.7 |
| 20260902183004 | 26 | 307 | 3.2 | 11.3 | 0.00 | 0.38 | 0.38 | 63 | 1013.9 |
| 20260902182004 | 26 | 291 | 3.2 | 12.9 | 0.00 | 0.38 | 0.38 | 66 | 1013.8 |
| 20260902181004 | 25 | 287 | 3.2 | 11.3 | 0.00 | 0.38 | 0.38 | 70 | 1013.6 |
| 20260902180006 | 25 | 306 | 4.8 | 12.9 | 0.00 | 0.38 | 0.38 | 71 | 1013.8 |
| 20260902175004 | 24 | 303 | 6.4 | 11.3 | 0.00 | 0.38 | 0.38 | 76 | 1014.0 |
| 20260902174004 | 24 | 280 | 6.4 | 11.3 | 0.00 | 0.38 | 0.38 | 76 | 1014.2 |
| 20260902171003 | 23 | 285 | 3.2 | 11.3 | 0.00 | 0.38 | 0.38 | 79 | 1014.1 |
| 20260902170003 | 23 | 229 | 3.2 | 9.7 | 0.00 | 0.38 | 0.38 | 80 | 1014.2 |
| 20260902165004 | 23 | 5 | 3.2 | 8.0 | 0.00 | 0.38 | 0.38 | 80 | 1014.3 |
| 20260902163003 | 22 | 275 | 4.8 | 9.7 | 0.00 | 0.38 | 0.38 | 85 | 1014.1 |
| 20260902161004 | 21 | 317 | 3.2 | 8.0 | 0.00 | 0.38 | 0.38 | 88 | 1014.1 |
| 20260902160005 | 21 | 302 | 3.2 | 9.7 | 0.00 | 0.38 | 0.38 | 88 | 1014.1 |
| 20260902155004 | 21 | 335 | 1.6 | 9.7 | 0.00 | 0.38 | 0.38 | 88 | 1014.0 |
| 20260902154004 | 21 | 285 | 3.2 | 9.7 | 0.00 | 0.38 | 0.38 | 88 | 1014.1 |
| 20260902153003 | 21 | 256 | 4.8 | 9.7 | 0.00 | 0.38 | 0.38 | 91 | 1014.1 |
| 20260902152004 | 21 | 284 | 3.2 | 8.0 | 0.00 | 0.38 | 0.38 | 89 | 1013.8 |
| 20260902151004 | 20 | 288 | 3.2 | 4.8 | 0.00 | 0.38 | 0.38 | 92 | 1013.6 |
| 20260902150004 | 19 | 337 | 1.6 | 3.2 | 0.00 | 0.38 | 0.38 | 97 | 1013.6 |
| 20260902145004 | 19 | 0 | 0.0 | 4.8 | 0.00 | 0.38 | 0.38 | 99 | 1013.9 |
| 20260902144004 | 18 | 4 | 3.2 | 4.8 | 0.00 | 0.38 | 0.38 | 99 | 1014.2 |
| 20260902143004 | 17 | 304 | 3.2 | 4.8 | 0.00 | 0.38 | 0.38 | 99 | 1014.5 |
| 20260902142004 | 17 | 325 | 3.2 | 8.0 | 0.00 | 0.38 | 0.38 | 99 | 1014.7 |
| 20260902140004 | 17 | 303 | 1.6 | 8.0 | 0.00 | 0.38 | 0.38 | 99 | 1014.9 |
| 20260902135004 | 17 | 288 | 3.2 | 8.0 | 0.00 | 0.38 | 0.38 | 99 | 1015.1 |
| 20260902134004 | 16 | 314 | 1.6 | 3.2 | 0.03 | 0.38 | 0.38 | 99 | 1014.9 |
| 20260902133003 | 16 | 302 | 0.0 | 4.8 | 0.00 | 0.38 | 0.38 | 99 | 1014.6 |
| 20260902132004 | 16 | 307 | 1.6 | 4.8 | 0.00 | 0.38 | 0.38 | 99 | 1014.9 |
| 20260902130004 | 16 | 331 | 0.0 | 4.8 | 0.00 | 0.38 | 0.38 | 99 | 1014.7 |
| 20260902125003 | 16 | 101 | 0.0 | 4.8 | 0.03 | 0.38 | 0.38 | 99 | 1014.8 |
| 20260902124004 | 16 | 317 | 1.6 | 4.8 | 0.03 | 0.38 | 0.38 | 99 | 1014.6 |
| 20260902123004 | 16 | 322 | 1.6 | 8.0 | 0.03 | 0.38 | 0.38 | 99 | 1014.5 |
| 20260902122004 | 16 | 340 | 3.2 | 8.0 | 0.03 | 0.38 | 0.38 | 99 | 1014.0 |
| 20260902121004 | 16 | 37 | 0.0 | 8.0 | 0.05 | 0.38 | 0.38 | 99 | 1013.9 |
| 20260902120004 | 16 | 81 | 1.6 | 4.8 | 0.13 | 0.38 | 0.38 | 99 | 1013.5 |
| 20260902115004 | 16 | 343 | 3.2 | 4.8 | 0.15 | 0.36 | 0.36 | 99 | 1013.3 |
| 20260902114004 | 16 | 250 | 0.0 | 3.2 | 0.20 | 0.36 | 0.36 | 99 | 1012.6 |
| 20260902113003 | 16 | 25 | 1.6 | 3.2 | 0.23 | 0.36 | 0.36 | 99 | 1012.7 |
| 20260902112004 | 16 | 342 | 1.6 | 4.8 | 0.28 | 0.36 | 0.36 | 99 | 1012.9 |
| 20260902111003 | 16 | 19 | 3.2 | 4.8 | 0.30 | 0.33 | 0.33 | 99 | 1013.1 |
| 20260902110005 | 16 | 29 | 3.2 | 8.0 | 0.25 | 0.25 | 0.25 | 99 | 1015.5 |
| 20260902105004 | 16 | 293 | 1.6 | 9.7 | 0.18 | 0.18 | 0.18 | 99 | 1016.8 |
| 20260902103004 | 16 | 277 | 3.2 | 8.0 | 0.13 | 0.13 | 0.13 | 99 | 1016.6 |
| 20260902102004 | 16 | 265 | 1.6 | 8.0 | 0.08 | 0.08 | 0.08 | 97 | 1016.7 |
| 20260902100003 | 17 | 297 | 3.2 | 8.0 | 0.00 | 0.00 | 0.00 | 91 | 1015.8 |
| 20260902095004 | 17 | 285 | 3.2 | 4.8 | 0.00 | 0.00 | 0.00 | 90 | 1015.3 |
| 20260902094004 | 17 | 302 | 3.2 | 4.8 | 0.00 | 0.00 | 0.00 | 92 | 1014.8 |
| 20260902093004 | 16 | 320 | 3.2 | 4.8 | 0.00 | 0.00 | 0.00 | 95 | 1014.2 |
| 20260902092004 | 16 | 323 | 0.0 | 3.2 | 0.00 | 0.00 | 0.00 | 96 | 1014.2 |
| 20260902091004 | 16 | 8 | 0.0 | 1.6 | 0.00 | 0.00 | 0.00 | 96 | 1014.0 |
| 20260902090005 | 17 | 1 | 1.6 | 1.6 | 0.00 | 0.00 | 0.00 | 96 | 1013.7 |
| 20260902085004 | 17 | 341 | 1.6 | 1.6 | 0.00 | 0.00 | 0.00 | 95 | 1013.8 |
| 20260902084004 | 17 | 33 | 0.0 | 1.6 | 0.00 | 0.00 | 0.00 | 96 | 1013.6 |
| 20260902083004 | 16 | 55 | 0.0 | 3.2 | 0.00 | 0.00 | 0.00 | 94 | 1013.8 |
| 20260902082004 | 16 | 304 | 1.6 | 3.2 | 0.00 | 0.00 | 0.00 | 96 | 1013.9 |
| 20260902081004 | 16 | 337 | 1.6 | 1.6 | 0.00 | 0.00 | 0.00 | 95 | 1013.6 |
| 20260902080004 | 17 | 323 | 1.6 | 1.6 | 0.00 | 0.00 | 0.00 | 95 | 1013.3 |
| 20260902075003 | 17 | 348 | 1.6 | 1.6 | 0.00 | 0.00 | 0.00 | 94 | 1013.5 |
| 20260902074003 | 17 | 336 | 1.6 | 3.2 | 0.00 | 0.00 | 0.00 | 93 | 1013.3 |
| 20260902073003 | 18 | 321 | 1.6 | 4.8 | 0.00 | 0.00 | 0.00 | 91 | 1013.4 |
| 20260902072004 | 17 | 331 | 1.6 | 3.2 | 0.00 | 0.00 | 0.00 | 93 | 1013.4 |
| 20260902070005 | 17 | 343 | 1.6 | 3.2 | 0.00 | 0.00 | 0.00 | 95 | 1013.6 |
| 20260902065004 | 17 | 348 | 1.6 | 3.2 | 0.00 | 0.00 | 0.00 | 96 | 1013.8 |
| 20260902064004 | 17 | 334 | 1.6 | 3.2 | 0.00 | 0.00 | 0.00 | 95 | 1013.9 |
| 20260902063004 | 17 | 325 | 1.6 | 3.2 | 0.00 | 0.00 | 0.00 | 94 | 1013.8 |
| 20260902061004 | 17 | 324 | 1.6 | 3.2 | 0.00 | 0.00 | 0.00 | 94 | 1013.8 |
| 20260902055004 | 17 | 317 | 1.6 | 3.2 | 0.00 | 0.00 | 0.00 | 95 | 1013.8 |
| 20260902054004 | 17 | 308 | 1.6 | 3.2 | 0.00 | 0.00 | 0.00 | 94 | 1013.7 |
| 20260902052003 | 18 | 309 | 0.0 | 1.6 | 0.00 | 0.00 | 0.00 | 93 | 1013.5 |
| 20260902050007 | 18 | 346 | 0.0 | 1.6 | 0.00 | 0.00 | 0.00 | 91 | 1013.6 |
| 20260902044004 | 19 | 26 | 0.0 | 1.6 | 0.00 | 0.00 | 0.00 | 89 | 1013.4 |
| 20260902043003 | 20 | 7 | 0.0 | 1.6 | 0.00 | 0.00 | 0.00 | 90 | 1013.5 |
| 20260902042003 | 20 | 22 | 0.0 | 1.6 | 0.00 | 0.00 | 0.00 | 89 | 1013.5 |
| 20260902041003 | 20 | 11 | 0.0 | 1.6 | 0.00 | 0.00 | 0.00 | 90 | 1013.5 |
| 20260902040004 | 20 | 18 | 0.0 | 1.6 | 0.00 | 0.00 | 0.00 | 89 | 1013.3 |
| 20260902034003 | 20 | 5 | 0.0 | 1.6 | 0.00 | 0.00 | 0.00 | 89 | 1013.2 |
| 20260902033004 | 20 | 325 | 0.0 | 1.6 | 0.00 | 0.00 | 0.00 | 88 | 1013.2 |
| 20260902032004 | 20 | 326 | 0.0 | 1.6 | 0.00 | 0.00 | 0.00 | 90 | 1013.0 |
| 20260902030004 | 20 | 9 | 0.0 | 1.6 | 0.00 | 0.00 | 0.00 | 91 | 1012.9 |
| 20260902025004 | 20 | 0 | 0.0 | 1.6 | 0.00 | 0.00 | 0.00 | 90 | 1012.9 |
| 20260902024004 | 21 | 355 | 0.0 | 1.6 | 0.00 | 0.00 | 0.00 | 88 | 1012.9 |
| 20260902021004 | 22 | 316 | 0.0 | 3.2 | 0.00 | 0.00 | 0.00 | 82 | 1012.8 |
| 20260902015004 | 22 | 309 | 0.0 | 1.6 | 0.00 | 0.00 | 0.00 | 81 | 1012.8 |
| 20260902014004 | 23 | 316 | 0.0 | 1.6 | 0.00 | 0.00 | 0.00 | 81 | 1012.6 |
| 20260902013004 | 23 | 317 | 0.0 | 4.8 | 0.00 | 0.00 | 0.00 | 79 | 1012.5 |
| 20260902012004 | 23 | 51 | 0.0 | 1.6 | 0.00 | 0.00 | 0.00 | 79 | 1012.3 |
| 20260902005003 | 23 | 33 | 0.0 | 1.6 | 0.00 | 0.00 | 0.00 | 77 | 1012.0 |
| 20260902003004 | 25 | 342 | 0.0 | 0.0 | 0.00 | 0.00 | 0.00 | 72 | 1012.0 |
| 20260902002004 | 26 | 7 | 0.0 | 3.2 | 0.00 | 0.00 | 0.00 | 69 | 1012.1 |
| 20260902001003 | 26 | 333 | 0.0 | 1.6 | 0.00 | 0.00 | 0.00 | 67 | 1012.0 |
| 20260902000004 | 27 | 308 | 0.0 | 1.6 | 0.00 | 0.00 | 0.00 | 64 | 1012.0 |
| 20260901235004 | 28 | 316 | 1.6 | 4.8 | 0.00 | 0.00 | 0.00 | 61 | 1011.8 |
| 20260901233003 | 28 | 325 | 1.6 | 8.0 | 0.00 | 0.00 | 0.00 | 59 | 1012.0 |
| 20260901232004 | 29 | 300 | 3.2 | 8.0 | 0.00 | 0.00 | 0.00 | 57 | 1011.9 |
| 20260901231004 | 29 | 305 | 1.6 | 9.7 | 0.00 | 0.00 | 0.00 | 58 | 1012.0 |
| 20260901230004 | 29 | 341 | 1.6 | 8.0 | 0.00 | 0.00 | 0.00 | 60 | 1012.0 |
| 20260901225004 | 30 | 283 | 1.6 | 8.0 | 0.00 | 0.00 | 0.00 | 59 | 1012.0 |
| 20260901224004 | 29 | 294 | 1.6 | 4.8 | 0.00 | 0.00 | 0.00 | 60 | 1012.1 |
| 20260901223004 | 30 | 281 | 1.6 | 3.2 | 0.00 | 0.00 | 0.00 | 59 | 1012.0 |
| 20260901222004 | 31 | 287 | 1.6 | 9.7 | 0.00 | 0.00 | 0.00 | 54 | 1011.9 |
| 20260901221004 | 31 | 272 | 3.2 | 12.9 | 0.00 | 0.00 | 0.00 | 53 | 1011.9 |
| 20260901220004 | 31 | 289 | 3.2 | 9.7 | 0.00 | 0.00 | 0.00 | 52 | 1011.9 |
| 20260901215004 | 31 | 296 | 3.2 | 9.7 | 0.00 | 0.00 | 0.00 | 52 | 1012.0 |
| 20260901214004 | 30 | 276 | 3.2 | 9.7 | 0.00 | 0.00 | 0.00 | 54 | 1012.1 |
| 20260901213003 | 31 | 278 | 4.8 | 11.3 | 0.00 | 0.00 | 0.00 | 50 | 1011.8 |
| 20260901212004 | 32 | 314 | 6.4 | 12.9 | 0.00 | 0.00 | 0.00 | 48 | 1012.0 |
| 20260901210003 | 32 | 281 | 6.4 | 16.1 | 0.00 | 0.00 | 0.00 | 45 | 1012.2 |
| 20260901205004 | 32 | 297 | 3.2 | 14.5 | 0.00 | 0.00 | 0.00 | 47 | 1012.1 |
| 20260901202004 | 32 | 257 | 6.4 | 12.9 | 0.00 | 0.00 | 0.00 | 47 | 1012.3 |
| 20260901201004 | 32 | 266 | 4.8 | 12.9 | 0.00 | 0.00 | 0.00 | 44 | 1012.4 |
| 20260901200003 | 32 | 342 | 3.2 | 9.7 | 0.00 | 0.00 | 0.00 | 48 | 1012.4 |
| 20260901195004 | 33 | 262 | 1.6 | 9.7 | 0.00 | 0.00 | 0.00 | 48 | 1012.5 |
| 20260901194004 | 32 | 287 | 3.2 | 11.3 | 0.00 | 0.00 | 0.00 | 51 | 1012.5 |
| 20260901192004 | 31 | 228 | 4.8 | 12.9 | 0.00 | 0.00 | 0.00 | 49 | 1012.7 |
| 20260901191004 | 31 | 270 | 4.8 | 11.3 | 0.00 | 0.00 | 0.00 | 49 | 1013.0 |
| 20260901190003 | 31 | 270 | 4.8 | 14.5 | 0.00 | 0.00 | 0.00 | 47 | 1012.9 |